| time (UTC) | temp F | wind direction | speed knots | gust knots | rain 1hr in | rain 24hr in | rain mn in | humidity % | barometer mb |
| 20260502163021 | 70 | 13 | 3.5 | 7.8 | 0.00 | 0.00 | 0.00 | 43 | 1022.1 |
| 20260502161511 | 69 | 51 | 2.6 | 7.8 | 0.00 | 0.00 | 0.00 | 48 | 1022.2 |
| 20260502151503 | 67 | 14 | 1.7 | 7.8 | 0.00 | 0.00 | 0.00 | 54 | 1022.1 |
| 20260502123057 | 52 | 29 | 0.9 | 4.3 | 0.00 | 0.00 | 0.00 | 82 | 1021.0 |
| 20260502121553 | 52 | 37 | 0.9 | 3.5 | 0.00 | 0.00 | 0.00 | 83 | 1020.7 |
| 20260502114604 | 51 | 41 | 1.7 | 4.3 | 0.00 | 0.00 | 0.00 | 83 | 1020.5 |
| 20260502113049 | 51 | 304 | 0.0 | 0.9 | 0.00 | 0.00 | 0.00 | 83 | 1020.1 |
| 20260502111553 | 51 | 304 | 0.0 | 0.9 | 0.00 | 0.00 | 0.00 | 83 | 1020.0 |
| 20260502110045 | 51 | 304 | 0.0 | 1.7 | 0.00 | 0.00 | 0.00 | 81 | 1020.0 |
| 20260502104550 | 52 | 304 | 0.0 | 0.0 | 0.00 | 0.00 | 0.00 | 79 | 1019.9 |
| 20260502103044 | 52 | 304 | 0.0 | 1.7 | 0.00 | 0.00 | 0.00 | 79 | 1019.8 |
| 20260502101612 | 52 | 304 | 0.0 | 2.6 | 0.00 | 0.00 | 0.00 | 79 | 1019.4 |
| 20260502071521 | 50 | 22 | 1.7 | 4.3 | 0.00 | 0.00 | 0.00 | 82 | 1019.3 |
| 20260502070022 | 49 | 26 | 1.7 | 5.2 | 0.00 | 0.00 | 0.00 | 84 | 1019.3 |
| 20260502064517 | 47 | 28 | 3.5 | 5.2 | 0.00 | 0.00 | 0.00 | 88 | 1019.4 |
| 20260502063014 | 46 | 42 | 0.0 | 0.0 | 0.00 | 0.00 | 0.00 | 86 | 1019.2 |
| 20260502061513 | 46 | 42 | 0.0 | 0.0 | 0.00 | 0.00 | 0.00 | 85 | 1019.1 |
| 20260502060013 | 47 | 42 | 0.0 | 0.0 | 0.00 | 0.00 | 0.00 | 85 | 1019.0 |
| 20260502054509 | 47 | 42 | 0.0 | 0.0 | 0.00 | 0.00 | 0.00 | 84 | 1018.9 |
| 20260502053006 | 47 | 42 | 0.0 | 0.0 | 0.00 | 0.00 | 0.00 | 84 | 1018.8 |
| 20260502051507 | 48 | 42 | 0.0 | 0.0 | 0.00 | 0.00 | 0.00 | 83 | 1018.8 |
| 20260502050007 | 48 | 42 | 0.0 | 0.0 | 0.00 | 0.00 | 0.00 | 82 | 1018.8 |
| 20260502044501 | 49 | 42 | 0.0 | 0.0 | 0.00 | 0.00 | 0.00 | 82 | 1018.9 |
| 20260502043106 | 49 | 42 | 0.0 | 0.0 | 0.00 | 0.00 | 0.00 | 82 | 1019.0 |
| 20260502041600 | 50 | 42 | 0.0 | 0.0 | 0.00 | 0.00 | 0.00 | 81 | 1019.1 |
| 20260502034559 | 51 | 42 | 0.0 | 0.0 | 0.00 | 0.00 | 0.00 | 80 | 1019.1 |
| 20260502033100 | 51 | 42 | 0.0 | 0.0 | 0.00 | 0.00 | 0.00 | 78 | 1019.1 |
| 20260502031558 | 52 | 42 | 0.0 | 0.0 | 0.00 | 0.00 | 0.00 | 77 | 1019.1 |
| 20260502030105 | 52 | 42 | 0.0 | 0.0 | 0.00 | 0.00 | 0.00 | 76 | 1018.9 |
| 20260502024556 | 53 | 42 | 0.0 | 0.0 | 0.00 | 0.00 | 0.00 | 75 | 1018.8 |
| 20260502023123 | 54 | 42 | 0.0 | 0.0 | 0.00 | 0.00 | 0.00 | 73 | 1018.6 |
| 20260502021556 | 54 | 42 | 0.0 | 0.0 | 0.00 | 0.00 | 0.00 | 71 | 1018.5 |
| 20260502020109 | 56 | 42 | 0.0 | 0.0 | 0.00 | 0.00 | 0.00 | 69 | 1018.2 |
| 20260502014555 | 57 | 42 | 0.0 | 0.0 | 0.00 | 0.00 | 0.00 | 66 | 1017.9 |
| 20260502013104 | 59 | 42 | 0.0 | 0.0 | 0.00 | 0.00 | 0.00 | 62 | 1017.9 |
| 20260502011604 | 61 | 42 | 0.0 | 0.0 | 0.00 | 0.00 | 0.00 | 61 | 1017.6 |
| 20260502010052 | 63 | 42 | 0.0 | 0.0 | 0.00 | 0.00 | 0.00 | 57 | 1017.5 |
| 20260502004608 | 65 | 42 | 0.0 | 1.7 | 0.00 | 0.00 | 0.00 | 55 | 1017.4 |
| 20260502003056 | 66 | 42 | 0.0 | 1.7 | 0.00 | 0.00 | 0.00 | 46 | 1017.2 |
| 20260502000041 | 68 | 5 | 0.0 | 4.3 | 0.00 | 0.00 | 0.00 | 40 | 1017.0 |
| 20260501234541 | 69 | 31 | 1.7 | 5.2 | 0.00 | 0.00 | 0.00 | 38 | 1017.0 |
| 20260501233047 | 69 | 29 | 0.9 | 3.5 | 0.00 | 0.00 | 0.00 | 37 | 1016.9 |
| 20260501231540 | 69 | 18 | 1.7 | 7.8 | 0.00 | 0.00 | 0.00 | 37 | 1016.8 |
| 20260501230041 | 70 | 51 | 2.6 | 7.8 | 0.00 | 0.00 | 0.00 | 37 | 1016.9 |
| 20260501224539 | 71 | 16 | 2.6 | 8.7 | 0.00 | 0.00 | 0.00 | 35 | 1016.9 |
| 20260501223037 | 72 | 9 | 5.2 | 10.4 | 0.00 | 0.00 | 0.00 | 35 | 1016.9 |
| 20260501221536 | 71 | 59 | 3.5 | 7.8 | 0.00 | 0.00 | 0.00 | 36 | 1016.9 |
| 20260501220108 | 72 | 32 | 4.3 | 9.6 | 0.00 | 0.00 | 0.00 | 33 | 1016.8 |
| 20260501214537 | 73 | 19 | 3.5 | 10.4 | 0.00 | 0.00 | 0.00 | 35 | 1016.7 |
| 20260501213034 | 74 | 5 | 3.5 | 8.7 | 0.00 | 0.00 | 0.00 | 38 | 1016.9 |
| 20260501211534 | 73 | 15 | 3.5 | 10.4 | 0.00 | 0.00 | 0.00 | 38 | 1017.1 |
| 20260501210039 | 73 | 19 | 4.3 | 11.3 | 0.00 | 0.00 | 0.00 | 36 | 1017.2 |
| 20260501204538 | 73 | 360 | 2.6 | 8.7 | 0.00 | 0.00 | 0.00 | 38 | 1017.2 |
| 20260501203033 | 73 | 88 | 1.7 | 7.8 | 0.00 | 0.00 | 0.00 | 38 | 1017.5 |
| 20260501201536 | 75 | 51 | 2.6 | 10.4 | 0.00 | 0.00 | 0.00 | 33 | 1018.1 |
| 20260501200026 | 75 | 45 | 1.7 | 7.0 | 0.00 | 0.00 | 0.00 | 38 | 1018.3 |
| 20260501194523 | 75 | 298 | 1.7 | 7.8 | 0.00 | 0.00 | 0.00 | 39 | 1018.6 |
| 20260501193031 | 75 | 10 | 3.5 | 7.8 | 0.00 | 0.00 | 0.00 | 38 | 1018.9 |
| 20260501191519 | 74 | 5 | 3.5 | 7.8 | 0.00 | 0.00 | 0.00 | 40 | 1019.1 |
| 20260501190017 | 74 | 21 | 4.3 | 9.6 | 0.00 | 0.00 | 0.00 | 45 | 1019.3 |
| 20260501184524 | 73 | 43 | 3.5 | 10.4 | 0.00 | 0.00 | 0.00 | 41 | 1019.4 |
| 20260501183013 | 71 | 32 | 5.2 | 8.7 | 0.00 | 0.00 | 0.00 | 46 | 1019.6 |
| 20260501181533 | 72 | 15 | 3.5 | 8.7 | 0.00 | 0.00 | 0.00 | 45 | 1019.8 |
| 20260501180008 | 71 | 14 | 1.7 | 5.2 | 0.00 | 0.00 | 0.00 | 49 | 1019.9 |